Home   Weather   Springe   Past weeks

Flag for Germany Past Weather in Springe, Lower Saxony, Germany — Yesterday and Last 2 Weeks

Now
68 °F

Mild.


Feels Like: 68 °F
Forecast: 47 / 79 °F
Wind: 3 mph from Northeast

Location: Wunstorf Airport

Current Time: Aug 30, 2016 at 9:02:07 PM

Latest Report: Aug 30, 2016 at 8:20 PM


Visibility: N/A

Pressure: 30.24 "Hg

Humidity: 53%

Dew Point: 50 °F

Location of SpringeLocation

Past Weather in Springe — Graph

°F

Springe Temperature Yesterday

Maximum temperature yesterday: 70 °F (at 1:20 PM)
Minimum temperature yesterday: 57 °F (at 11:20 PM)
Average temperature yesterday: 65 °F

High & Low Weather Summary for the Past Weeks

 TemperatureHumidityPressure
High95 °F (Aug 28, 3:20 PM)94% (Aug 16, 2:20 AM)30.33 "Hg (Aug 16, 2:20 AM)
Low46 °F (Aug 18, 5:20 AM)24% (Aug 25, 5:20 PM)29.80 "Hg (Aug 18, 3:20 PM)
Average68 °F66%30.05 "Hg
* Reported Aug 15 7:20 PM — Aug 30 7:20 PM, Springe, Weather by CustomWeather, © 2016

Note: Actual official high and low records may vary slightly from our data, if they occured in-between our weather recording intervals... More about our weather records

Advertising

Springe Weather History for the Previous 24 Hours

Scroll right to see more
 ConditionsComfort  
Time TempWeatherWind HumidityBarometerVisibility
7:20 PM
Tue, Aug 30
72 °FPassing clouds.3 mph41%30.24 "HgN/A
6:20 PM73 °FPassing clouds.3 mph38%30.24 "HgN/A
5:20 PM73 °FPassing clouds.6 mph38%30.27 "HgN/A
4:20 PM73 °FPassing clouds.6 mph38%30.27 "HgN/A
3:20 PM73 °FPassing clouds.6 mph38%30.30 "HgN/A
2:20 PM72 °FPassing clouds.8 mph44%30.30 "HgN/A
1:20 PM70 °FPassing clouds.6 mph46%30.30 "HgN/A
12:20 PM68 °FPassing clouds.6 mph49%30.33 "HgN/A
11:20 AM64 °FScattered clouds.3 mph64%30.33 "HgN/A
10:20 AM63 °FScattered clouds.5 mph68%30.33 "HgN/A
9:20 AM59 °FScattered clouds.5 mph77%30.30 "HgN/A
8:20 AM55 °FScattered clouds.3 mph88%30.30 "HgN/A
7:20 AM50 °FPassing clouds.3 mph94%30.27 "HgN/A
5:20 AM52 °FCool.1 mph94%30.27 "Hg3 mi
4:20 AM50 °FCool.No wind94%30.27 "Hg6 mi
3:20 AM50 °FCool.No wind94%30.24 "HgN/A
2:20 AM54 °FCool.3 mph88%30.24 "Hg6 mi
1:20 AM55 °FCool.5 mph88%30.24 "HgN/A
12:20 AM54 °FCool.2 mph88%30.24 "HgN/A
11:20 PM
Mon, Aug 29
57 °FCool.5 mph82%30.21 "HgN/A
10:20 PM59 °FCool.6 mph77%30.21 "HgN/A
9:20 PM61 °FCool.7 mph77%30.18 "HgN/A
Weather by CustomWeather, © 2016

See weather overviewHow to use our weather pages